TimeEDT,TemperatureF,Dew PointF,Humidity,Sea Level PressureIn,VisibilityMPH,Wind Direction,Wind SpeedMPH,Gust SpeedMPH,PrecipitationIn,Events,Conditions,WindDirDegrees,DateUTC
12:15 AM,68.9,60.3,74,29.76,10.0,Calm,Calm,-,N/A,,Mostly Cloudy,0,2013-05-22 04:15:00
12:35 AM,69.6,61.3,75,29.76,10.0,Calm,Calm,-,N/A,,Mostly Cloudy,0,2013-05-22 04:35:00
12:54 AM,68.9,61.5,77,29.76,10.0,Calm,Calm,-,N/A,,Mostly Cloudy,0,2013-05-22 04:54:00
1:15 AM,69.3,61.2,75,29.75,10.0,South,3.5,-,N/A,,Scattered Clouds,170,2013-05-22 05:15:00
1:35 AM,70.0,61.0,73,29.75,10.0,SSW,3.5,-,N/A,,Clear,210,2013-05-22 05:35:00
1:54 AM,70.0,61.2,73,29.75,10.0,SSW,5.8,-,N/A,,Clear,210,2013-05-22 05:54:00
2:15 AM,70.0,61.2,73,29.74,10.0,SSW,5.8,-,N/A,,Clear,200,2013-05-22 06:15:00
2:35 AM,70.7,61.5,73,29.73,10.0,SSW,6.9,-,N/A,,Clear,200,2013-05-22 06:35:00
2:55 AM,70.7,61.5,73,29.73,10.0,SW,5.8,-,N/A,,Scattered Clouds,220,2013-05-22 06:55:00
3:15 AM,70.7,61.5,73,29.73,10.0,Calm,Calm,-,N/A,,Clear,0,2013-05-22 07:15:00
3:34 AM,70.2,61.5,74,29.73,10.0,West,5.8,-,N/A,,Clear,260,2013-05-22 07:34:00
3:55 AM,68.0,61.9,81,29.73,10.0,Calm,Calm,-,N/A,,Clear,0,2013-05-22 07:55:00
4:15 AM,68.4,62.2,81,29.74,10.0,South,3.5,-,N/A,,Clear,170,2013-05-22 08:15:00
4:34 AM,68.4,62.6,82,29.73,10.0,SSE,3.5,-,N/A,,Clear,160,2013-05-22 08:34:00
4:55 AM,68.5,62.6,81,29.73,10.0,SSE,4.6,-,N/A,,Clear,160,2013-05-22 08:55:00
5:15 AM,68.2,62.6,82,29.73,10.0,SSE,3.5,-,N/A,,Clear,150,2013-05-22 09:15:00
5:34 AM,66.7,62.6,86,29.72,10.0,Calm,Calm,-,N/A,,Scattered Clouds,0,2013-05-22 09:34:00
5:55 AM,67.6,63.0,85,29.72,10.0,SSE,4.6,-,N/A,,Mostly Cloudy,160,2013-05-22 09:55:00
6:15 AM,68.0,62.8,83,29.72,10.0,South,5.8,-,N/A,,Mostly Cloudy,190,2013-05-22 10:15:00
6:34 AM,68.4,62.8,82,29.73,10.0,SSW,4.6,-,N/A,,Overcast,210,2013-05-22 10:34:00
6:55 AM,68.5,63.1,83,29.73,10.0,SSW,5.8,-,N/A,Rain,Light Rain,200,2013-05-22 10:55:00
7:15 AM,68.2,63.5,85,29.74,10.0,SSW,4.6,-,N/A,,Light Drizzle,210,2013-05-22 11:15:00
7:34 AM,68.0,63.9,87,29.74,10.0,South,5.8,-,N/A,,Overcast,180,2013-05-22 11:34:00
7:55 AM,67.5,64.4,90,29.74,7.0,SSW,3.5,-,N/A,,Light Drizzle,200,2013-05-22 11:55:00
8:15 AM,67.5,64.4,90,29.74,10.0,South,8.1,-,N/A,,Overcast,170,2013-05-22 12:15:00
8:34 AM,68.0,64.6,89,29.74,10.0,South,6.9,-,N/A,,Overcast,180,2013-05-22 12:34:00
8:55 AM,68.9,64.8,87,29.74,10.0,South,8.1,-,N/A,,Overcast,180,2013-05-22 12:55:00
9:15 AM,69.6,64.9,85,29.73,10.0,South,8.1,-,N/A,,Overcast,190,2013-05-22 13:15:00
9:35 AM,71.2,64.6,79,29.73,10.0,South,8.1,-,N/A,,Mostly Cloudy,190,2013-05-22 13:35:00
9:55 AM,71.1,64.4,79,29.72,10.0,South,8.1,-,N/A,,Mostly Cloudy,180,2013-05-22 13:55:00
10:14 AM,70.5,64.4,81,29.71,10.0,SSW,8.1,-,N/A,,Mostly Cloudy,200,2013-05-22 14:14:00
10:35 AM,69.8,65.1,85,29.71,10.0,South,9.2,16.1,N/A,Rain,Light Rain,190,2013-05-22 14:35:00
10:55 AM,70.2,65.7,86,29.71,10.0,South,9.2,-,N/A,,Light Drizzle,180,2013-05-22 14:55:00
11:14 AM,70.0,64.9,84,29.71,10.0,South,9.2,-,N/A,,Overcast,170,2013-05-22 15:14:00
11:35 AM,71.4,64.4,78,29.71,10.0,South,9.2,-,N/A,,Overcast,180,2013-05-22 15:35:00
11:55 AM,71.4,64.4,78,29.70,10.0,South,10.4,18.4,N/A,,Overcast,190,2013-05-22 15:55:00
12:14 PM,71.4,64.0,77,29.70,10.0,South,11.5,-,N/A,,Overcast,180,2013-05-22 16:14:00
12:35 PM,72.5,63.0,72,29.69,10.0,SSW,8.1,-,N/A,,Overcast,200,2013-05-22 16:35:00
12:55 PM,71.6,62.4,73,29.70,10.0,South,10.4,18.4,N/A,Rain,Light Rain,190,2013-05-22 16:55:00
1:14 PM,71.6,62.4,73,29.69,10.0,South,11.5,18.4,N/A,,Overcast,190,2013-05-22 17:14:00
1:35 PM,73.4,63.0,70,29.68,10.0,SSW,10.4,19.6,N/A,,Overcast,210,2013-05-22 17:35:00
1:55 PM,72.9,63.3,72,29.68,10.0,South,12.7,20.7,N/A,,Overcast,180,2013-05-22 17:55:00
2:14 PM,73.6,62.6,68,29.67,10.0,South,18.4,21.9,N/A,,Overcast,180,2013-05-22 18:14:00
2:35 PM,74.7,61.7,64,29.66,10.0,South,19.6,25.3,N/A,,Overcast,190,2013-05-22 18:35:00
2:55 PM,75.2,61.5,62,29.66,10.0,South,17.3,25.3,N/A,,Overcast,190,2013-05-22 18:55:00
3:15 PM,78.4,60.3,53,29.65,10.0,SSW,15.0,26.5,N/A,,Mostly Cloudy,200,2013-05-22 19:15:00
3:35 PM,77.9,59.4,53,29.65,10.0,SSW,16.1,21.9,N/A,,Mostly Cloudy,210,2013-05-22 19:35:00
3:54 PM,77.5,58.3,51,29.65,10.0,SSW,15.0,27.6,N/A,,Overcast,210,2013-05-22 19:54:00
4:15 PM,78.6,58.1,49,29.64,10.0,SW,16.1,23.0,N/A,,Mostly Cloudy,230,2013-05-22 20:15:00
4:35 PM,79.5,57.0,46,29.63,10.0,SSW,12.7,20.7,N/A,,Mostly Cloudy,210,2013-05-22 20:35:00
4:54 PM,79.0,56.8,46,29.63,10.0,SSW,17.3,23.0,N/A,,Mostly Cloudy,210,2013-05-22 20:54:00
5:15 PM,77.9,56.5,48,29.63,10.0,SSW,12.7,20.7,N/A,,Mostly Cloudy,200,2013-05-22 21:15:00
5:35 PM,75.2,58.5,56,29.64,10.0,WNW,15.0,26.5,N/A,,Overcast,290,2013-05-22 21:35:00
5:54 PM,69.1,60.6,74,29.65,10.0,WNW,15.0,21.9,N/A,Rain,Rain,290,2013-05-22 21:54:00
6:15 PM,69.3,63.0,80,29.66,10.0,West,11.5,17.3,N/A,,Overcast,270,2013-05-22 22:15:00
6:35 PM,69.1,62.8,80,29.67,10.0,West,12.7,-,N/A,,Overcast,270,2013-05-22 22:35:00
6:54 PM,68.2,62.8,83,29.68,7.0,West,13.8,20.7,N/A,Rain,Rain,260,2013-05-22 22:54:00
7:15 PM,66.4,63.7,91,29.68,10.0,West,15.0,-,N/A,Rain,Light Rain,270,2013-05-22 23:15:00
7:35 PM,65.3,63.0,92,29.68,10.0,WSW,4.6,-,N/A,,Overcast,250,2013-05-22 23:35:00
7:54 PM,65.5,63.5,93,29.68,10.0,WSW,4.6,-,N/A,,Mostly Cloudy,240,2013-05-22 23:54:00
8:15 PM,65.5,63.5,93,29.68,10.0,SSW,3.5,-,N/A,,Scattered Clouds,210,2013-05-23 00:15:00
8:35 PM,65.3,63.5,94,29.68,10.0,SW,5.8,-,N/A,,Scattered Clouds,220,2013-05-23 00:35:00
8:54 PM,64.8,62.8,93,29.68,10.0,SSW,6.9,-,N/A,,Scattered Clouds,210,2013-05-23 00:54:00
9:15 PM,64.4,61.9,92,29.69,10.0,SW,6.9,-,N/A,,Clear,230,2013-05-23 01:15:00
9:34 PM,63.7,61.3,92,29.69,10.0,SW,6.9,-,N/A,,Clear,220,2013-05-23 01:34:00
9:55 PM,63.5,61.0,91,29.69,10.0,SSW,6.9,-,N/A,,Mostly Cloudy,200,2013-05-23 01:55:00
10:15 PM,63.1,61.0,93,29.70,10.0,SSW,6.9,-,N/A,,Mostly Cloudy,200,2013-05-23 02:15:00
10:34 PM,63.3,61.2,93,29.71,10.0,SW,6.9,-,N/A,,Scattered Clouds,220,2013-05-23 02:34:00
10:55 PM,63.0,61.3,94,29.71,10.0,SW,8.1,-,N/A,,Scattered Clouds,220,2013-05-23 02:55:00
11:14 PM,62.8,61.3,95,29.71,10.0,SW,6.9,-,N/A,,Clear,220,2013-05-23 03:14:00
11:35 PM,62.4,61.2,96,29.71,7.0,SW,9.2,-,N/A,,Clear,230,2013-05-23 03:35:00
11:55 PM,61.9,60.8,96,29.70,7.0,SW,5.8,-,N/A,,Clear,230,2013-05-23 03:55:00